Location: Unspecified
(58.9933°N, 5.6375°E)
Time: 17:54:58
(UTC+01:00)

Okean 3 - Visible Passes

Search period start: 16 December 2017 00:00
Search period end: 26 December 2017 00:00
Orbit: 577 x 602 km, 82.5° (Epoch: 15 December)

Date Brightness Start Highest point End Pass type
(mag) Time Alt. Az. Time Alt. Az. Time Alt. Az.
16 Dec 3.6 17:28:55 10° SSW 17:33:08 79° WNW 17:37:25 10° NNE visible
16 Dec 6.1 19:08:24 10° W 19:11:09 17° NW 19:13:56 10° NNW visible
17 Dec 4.0 17:37:10 10° SSW 17:41:20 59° WNW 17:45:33 10° N visible
17 Dec 6.3 19:17:25 10° W 19:19:33 13° NW 19:21:42 10° NNW visible
18 Dec 4.5 17:45:30 10° SW 17:49:33 44° WNW 17:53:40 10° N visible
18 Dec 6.4 19:26:53 10° WNW 19:27:59 11° NW 19:29:07 10° NNW visible
19 Dec 5.0 17:53:56 10° SW 17:57:48 34° WNW 18:01:44 10° N visible
20 Dec 5.4 18:02:29 10° WSW 18:06:07 27° WNW 18:09:47 10° N visible
21 Dec 3.5 16:32:27 10° S 16:36:39 75° ESE 16:40:56 10° NNE visible
21 Dec 5.7 18:11:09 10° WSW 18:14:27 21° WNW 18:17:46 10° N visible
22 Dec 3.6 16:40:34 10° SSW 16:44:49 82° WNW 16:49:07 10° NNE visible
22 Dec 6.0 18:19:57 10° W 18:22:48 17° NW 18:25:41 10° NNW visible
23 Dec 4.0 16:48:48 10° SSW 16:53:00 62° WNW 16:57:16 10° N visible
23 Dec 6.2 18:28:56 10° W 18:31:12 14° NW 18:33:29 10° NNW visible
24 Dec 4.5 16:57:07 10° SW 17:01:13 46° WNW 17:05:23 10° N visible
24 Dec 6.3 18:38:16 10° WNW 18:39:38 11° NW 18:41:01 10° NNW visible
25 Dec 4.9 17:05:33 10° SW 17:09:29 35° WNW 17:13:28 10° N visible
